Weather History for Myrtle Beach, SC

Change the Weather History Date:

Sunday, January 20, 2013

  Actual Average Record
Temperature  
Mean Temperature 52 °F -  
Max Temperature 66 °F 53 °F 73 °F (1952)
Min Temperature 39 °F 33 °F 13 °F (1994)
Degree Days  
Heating Degree Days 12    
Growing Degree Days 2 (Base 50)    
Moisture  
Dew Point 39 °F    
Average Humidity 77    
Maximum Humidity 100    
Minimum Humidity 24    
Precipitation  
Precipitation 0.00 in - - ()
Sea Level Pressure  
Sea Level Pressure 30.14 in    
Wind  
Wind Speed 3 mph (West)    
Max Wind Speed 16 mph    
Max Gust Speed 17 mph    
Visibility 8 miles    
Events Fog    
Averages and records for this station are not official NWS values.
T = Trace of Precipitation, MM = Missing Value Source: NWS Daily Summary

Daily Weather History Graph

Daily Weather History Graph

Search for Another Location

Airport:

Trip Planner

Search our weather history database for the weather conditions in past years. The results will help you decide how hot, cold, wet, or windy it might be!

Date:

Astronomy

Jan. 20, 2013 Rise Set
Actual Time 7:18 AM EST 5:35 PM EST
Civil Twilight 6:51 AM EST 6:02 PM EST
Nautical Twilight 6:21 AM EST 6:32 PM EST
Astronomical Twilight 5:51 AM EST 7:02 PM EST
Moon 12:34 PM EST (1/20) 1:50 AM EST (1/20)
Length of Visible Light 11h 10m
Length of Day
10h 16m
Waxing Gibbous, 66% of the Moon is Illuminated
Jan 20
Waxing Gibbous
Jan 26
Full
Feb 3
Last Quarter
Feb 10
New
Feb 17
First Quarter

Hourly Weather History & Observations

Time (EST) Temp. Windchill Dew Point Humidity Pressure Visibility Wind Dir Wind Speed Gust Speed Precip Events Conditions
12:15 AM 42.8 °F - 42.8 °F 100% 30.22 in 5.0 mi Calm Calm - N/A   Clear
12:35 AM 42.8 °F - 41.0 °F 93% 30.21 in 4.0 mi Calm Calm - N/A   Clear
12:55 AM 42.8 °F - 41.0 °F 93% 30.21 in 4.0 mi Calm Calm - N/A   Clear
1:15 AM 42.8 °F - 41.0 °F 93% 30.20 in 5.0 mi Calm Calm - N/A   Clear
1:35 AM 41.0 °F - 39.2 °F 93% 30.19 in 5.0 mi Calm Calm - N/A   Clear
1:55 AM 41.0 °F - 39.2 °F 93% 30.19 in 3.0 mi Calm Calm - N/A   Clear
2:15 AM 42.8 °F - 42.8 °F 100% 30.18 in 7.0 mi Calm Calm - N/A   Clear
2:35 AM 42.8 °F 41.1 °F 39.2 °F 87% 30.18 in 8.0 mi SW 3.5 mph - N/A   Clear
2:55 AM 42.8 °F 41.1 °F 42.8 °F 100% 30.18 in 9.0 mi SSW 3.5 mph - N/A   Clear
3:15 AM 44.6 °F 43.1 °F 42.8 °F 93% 30.18 in 10.0 mi West 3.5 mph - N/A   Clear
3:35 AM 42.8 °F - 42.8 °F 100% 30.17 in 10.0 mi Calm Calm - N/A   Clear
3:55 AM 44.6 °F 43.1 °F 42.8 °F 93% 30.16 in 10.0 mi SSW 3.5 mph - N/A   Clear
4:15 AM 44.6 °F 43.1 °F 42.8 °F 93% 30.16 in 10.0 mi WSW 3.5 mph - N/A   Clear
4:35 AM 44.6 °F 43.1 °F 42.8 °F 93% 30.16 in 7.0 mi West 3.5 mph - N/A   Clear
4:55 AM 41.0 °F 39.0 °F 39.2 °F 93% 30.16 in 4.0 mi WNW 3.5 mph - N/A   Clear
5:15 AM 41.0 °F 37.1 °F 39.2 °F 93% 30.16 in 3.0 mi WNW 5.8 mph - N/A   Clear
5:35 AM 42.8 °F 41.1 °F 42.8 °F 100% 30.16 in 7.0 mi West 3.5 mph - N/A   Clear
5:50 AM 42.8 °F 39.3 °F 42.8 °F 100% 30.17 in 10.0 mi NW 5.8 mph - N/A   Clear
5:55 AM 42.8 °F 39.3 °F 42.8 °F 100% 30.16 in 3.0 mi WNW 5.8 mph - N/A   Clear
6:45 AM 42.8 °F 39.3 °F 41.0 °F 93% 30.17 in 10.0 mi West 5.8 mph - N/A Fog Patches of Fog
7:47 AM 42.8 °F 38.0 °F 39.2 °F 87% 30.17 in 10.0 mi WSW 8.1 mph - N/A   Clear
8:45 AM 48.2 °F - 46.4 °F 93% 30.18 in 10.0 mi WSW 8.1 mph - N/A   Clear
9:50 AM 53.6 °F - 46.4 °F 77% 30.18 in 10.0 mi West 11.5 mph - N/A   Clear
10:45 AM 59.0 °F - 46.4 °F 63% 30.16 in 10.0 mi WNW 11.5 mph - N/A   Scattered Clouds
11:50 AM 62.6 °F - 33.8 °F 34% 30.12 in 10.0 mi WNW 16.1 mph - N/A   Partly Cloudy
12:45 PM 64.4 °F - 33.8 °F 32% 30.07 in 10.0 mi WNW 11.5 mph - N/A   Partly Cloudy
1:45 PM 66.2 °F - 30.2 °F 26% 30.04 in 10.0 mi NW 11.5 mph 17.3 mph N/A   Clear
2:45 PM 66.2 °F - 30.2 °F 26% 30.03 in 10.0 mi West 11.5 mph - N/A   Clear
3:45 PM 66.2 °F - 28.4 °F 24% 30.03 in 10.0 mi West 11.5 mph - N/A   Clear
4:45 PM 66.2 °F - 28.4 °F 24% 30.03 in 10.0 mi WSW 8.1 mph - N/A   Clear
5:45 PM 59.0 °F - 30.2 °F 34% 30.04 in 10.0 mi West 4.6 mph - N/A   Clear
6:45 PM 51.8 °F - 33.8 °F 50% 30.06 in 10.0 mi Calm Calm - N/A   Clear
7:45 PM 48.2 °F - 35.6 °F 62% 30.07 in 10.0 mi Calm Calm - N/A   Clear
8:45 PM 44.6 °F - 35.6 °F 71% 30.08 in 10.0 mi Calm Calm - N/A   Clear
9:45 PM 42.8 °F - 33.8 °F 70% 30.09 in 10.0 mi Calm Calm - N/A   Clear
11:15 PM 39.2 °F - 33.8 °F 81% 30.10 in 10.0 mi Calm Calm - N/A   Clear
11:35 PM 39.2 °F - 33.8 °F 81% 30.09 in 10.0 mi Calm Calm - N/A   Clear
11:55 PM 41.0 °F - 33.8 °F 76% 30.09 in 10.0 mi Calm Calm - N/A   Clear